PWSweather.com
Personal Weather Stations
Station Observations
SEVANL01
SevillaES 41004

SevillaES 41004

Lat: 37.383633, Lon: -5.985787

Elevation: 19.685

Station Type: Davis Vantage Pro2

Latest ConditionsUpdated 8:40:01 AM GMT+01:01 Thursday, Oct 23, 2014
Currently Today's Max Today's Min Today's Average
Temperature 65.7°F18.7°C 72.9°F22.7°C 64.6°F18.1°C 68.0°F20.0°C
Dew Point 44.3°F6.8°C 57.2°F14.0°C 43.7°F6.5°C 49.0°F9.4°C
Winds 4.0 mph NE6.4 kmh NE 5.0 mph NE8.0 kmh NE - 2.5 mph 4.0 kmh
Wind Gusts 10.0 mph16.1 kmh 10.0 mph16.1 kmh - -
Humidity 46% 58% 45% 51%
Pressure 30.15 in1021.0 mb 30.15 in1021.0 mb 30.12 in1020.0 mb -
Hour Temp Dew Point Humidity Winds Wind Gusts Pressure Precip Precip Rate Daily Precip Total
08:40 AM 65.7°F18.7°C 44.3°F6.8°C 46% 4.0 mph NE6.4 kmh NE 10.0 mph16.1 kmh 30.15 in1021.0 mb 0.00 in0.0 mm 0.00 in/hr0.0 mm/hr 0.00 in0.0 mm
08:20 AM 64.8°F18.2°C 44.6°F7.0°C 48% 2.0 mph NE3.2 kmh NE 7.0 mph11.3 kmh 30.15 in1021.0 mb 0.00 in0.0 mm 0.00 in/hr0.0 mm/hr 0.00 in0.0 mm
08:00 AM 64.6°F18.1°C 43.9°F6.6°C 47% 3.0 mph NE4.8 kmh NE 9.0 mph14.5 kmh 30.14 in1020.7 mb 0.00 in0.0 mm 0.00 in/hr0.0 mm/hr 0.00 in0.0 mm
07:40 AM 64.8°F18.2°C 44.1°F6.7°C 47% 2.0 mph NE3.2 kmh NE 6.0 mph9.7 kmh 30.14 in1020.7 mb 0.00 in0.0 mm 0.00 in/hr0.0 mm/hr 0.00 in0.0 mm
07:20 AM 65.7°F18.7°C 43.7°F6.5°C 45% 1.0 mph NE1.6 kmh NE 6.0 mph9.7 kmh 30.14 in1020.7 mb 0.00 in0.0 mm 0.00 in/hr0.0 mm/hr 0.00 in0.0 mm
07:00 AM 65.8°F18.8°C 43.9°F6.6°C 45% 1.0 mph NE1.6 kmh NE 6.0 mph9.7 kmh 30.14 in1020.7 mb 0.00 in0.0 mm 0.00 in/hr0.0 mm/hr 0.00 in0.0 mm
06:40 AM 65.8°F18.8°C 44.5°F6.9°C 46% 1.0 mph NE1.6 kmh NE 7.0 mph11.3 kmh 30.13 in1020.3 mb 0.00 in0.0 mm 0.00 in/hr0.0 mm/hr 0.00 in0.0 mm
06:20 AM 66.4°F19.1°C 46.1°F7.8°C 48% 1.0 mph NNE1.6 kmh NNE 6.0 mph9.7 kmh 30.13 in1020.3 mb 0.00 in0.0 mm 0.00 in/hr0.0 mm/hr 0.00 in0.0 mm
06:00 AM 67.1°F19.5°C 46.2°F7.9°C 47% 4.0 mph NE6.4 kmh NE 9.0 mph14.5 kmh 30.13 in1020.3 mb 0.00 in0.0 mm 0.00 in/hr0.0 mm/hr 0.00 in0.0 mm
05:40 AM 66.9°F19.4°C 46.6°F8.1°C 48% 2.0 mph NNE3.2 kmh NNE 8.0 mph12.9 kmh 30.12 in1020.0 mb 0.00 in0.0 mm 0.00 in/hr0.0 mm/hr 0.00 in0.0 mm
05:20 AM 66.7°F19.3°C 47.0°F8.3°C 49% 1.0 mph NNE1.6 kmh NNE 5.0 mph8.0 kmh 30.12 in1020.0 mb 0.00 in0.0 mm 0.00 in/hr0.0 mm/hr 0.00 in0.0 mm
05:00 AM 66.9°F19.4°C 48.2°F9.0°C 51% 2.0 mph NE3.2 kmh NE 6.0 mph9.7 kmh 30.12 in1020.0 mb 0.00 in0.0 mm 0.00 in/hr0.0 mm/hr 0.00 in0.0 mm
04:40 AM 67.1°F19.5°C 48.4°F9.1°C 51% 1.0 mph NE1.6 kmh NE 5.0 mph8.0 kmh 30.12 in1020.0 mb 0.00 in0.0 mm 0.00 in/hr0.0 mm/hr 0.00 in0.0 mm
04:20 AM 66.6°F19.2°C 49.4°F9.7°C 54% 1.0 mph NE1.6 kmh NE 2.0 mph3.2 kmh 30.12 in1020.0 mb 0.00 in0.0 mm 0.00 in/hr0.0 mm/hr 0.00 in0.0 mm
04:00 AM 66.9°F19.4°C 49.7°F9.8°C 54% 3.0 mph NE4.8 kmh NE 8.0 mph12.9 kmh 30.12 in1020.0 mb 0.00 in0.0 mm 0.00 in/hr0.0 mm/hr 0.00 in0.0 mm
03:40 AM 67.5°F19.7°C 49.7°F9.8°C 53% 3.0 mph NE4.8 kmh NE 7.0 mph11.3 kmh 30.13 in1020.3 mb 0.00 in0.0 mm 0.00 in/hr0.0 mm/hr 0.00 in0.0 mm
03:20 AM 68.2°F20.1°C 49.9°F9.9°C 52% 3.0 mph NE4.8 kmh NE 7.0 mph11.3 kmh 30.13 in1020.3 mb 0.00 in0.0 mm 0.00 in/hr0.0 mm/hr 0.00 in0.0 mm
03:00 AM 68.5°F20.3°C 50.7°F10.4°C 53% 2.0 mph NNE3.2 kmh NNE 6.0 mph9.7 kmh 30.14 in1020.7 mb 0.00 in0.0 mm 0.00 in/hr0.0 mm/hr 0.00 in0.0 mm
02:40 AM 68.5°F20.3°C 51.2°F10.7°C 54% 4.0 mph NE6.4 kmh NE 8.0 mph12.9 kmh 30.14 in1020.7 mb 0.00 in0.0 mm 0.00 in/hr0.0 mm/hr 0.00 in0.0 mm
02:20 AM 68.9°F20.5°C 52.1°F11.2°C 55% 5.0 mph NE8.0 kmh NE 9.0 mph14.5 kmh 30.14 in1020.7 mb 0.00 in0.0 mm 0.00 in/hr0.0 mm/hr 0.00 in0.0 mm
02:00 AM 70.0°F21.1°C 52.6°F11.4°C 54% 4.0 mph NE6.4 kmh NE 10.0 mph16.1 kmh 30.14 in1020.7 mb 0.00 in0.0 mm 0.00 in/hr0.0 mm/hr 0.00 in0.0 mm
01:40 AM 70.3°F21.3°C 52.9°F11.6°C 54% 3.0 mph NE4.8 kmh NE 9.0 mph14.5 kmh 30.14 in1020.7 mb 0.00 in0.0 mm 0.00 in/hr0.0 mm/hr 0.00 in0.0 mm
01:20 AM 71.2°F21.8°C 53.2°F11.8°C 53% 3.0 mph NE4.8 kmh NE 6.0 mph9.7 kmh 30.14 in1020.7 mb 0.00 in0.0 mm 0.00 in/hr0.0 mm/hr 0.00 in0.0 mm
01:00 AM 72.7°F22.6°C 53.0°F11.7°C 50% 3.0 mph NNE4.8 kmh NNE 6.0 mph9.7 kmh 30.15 in1021.0 mb 0.00 in0.0 mm 0.00 in/hr0.0 mm/hr 0.00 in0.0 mm
12:40 AM 72.3°F22.4°C 54.2°F12.3°C 53% 3.0 mph NE4.8 kmh NE 7.0 mph11.3 kmh 30.15 in1021.0 mb 0.00 in0.0 mm 0.00 in/hr0.0 mm/hr 0.00 in0.0 mm
12:20 AM 72.7°F22.6°C 56.1°F13.4°C 56% 3.0 mph NE4.8 kmh NE 7.0 mph11.3 kmh 30.15 in1021.0 mb 0.00 in0.0 mm 0.00 in/hr0.0 mm/hr 0.00 in0.0 mm
12:00 AM 72.9°F22.7°C 57.2°F14.0°C 58% 3.0 mph NE4.8 kmh NE 7.0 mph11.3 kmh 30.15 in1021.0 mb 0.00 in0.0 mm 0.00 in/hr0.0 mm/hr 0.00 in0.0 mm